Flag for U.S.A. Weather past 2 weeks in Mason, Ohio, U.S.A.

Now
46 °F

Overcast.


Feels Like: 43 °F
Forecast: 39 / 56 °F
Wind: 6 mph from North

Location: Butler County Regional Airport

Current Time: Oct 22, 2014 at 4:56:38 AM

Latest Report: Oct 22, 2014 at 3:53 AM


Visibility: 10 mi

Pressure: 30.22 "Hg

Humidity: 77%

Dew point: 39 °F

Location of MasonLocation

Historic Weather in Mason — Graph

°F

Mason temperature yesterday

Maximum temperature yesterday: 56 °F (at 12:53 AM)
Minimum temperature yesterday: 48 °F (at 3:53 AM)
Average temperature yesterday: 51 °F

Past Weeks' High & Low Weather Summary

 TemperatureHumidityPressure
High78 °F (Oct 13, 5:53 PM)100% (Oct 7, 4:53 AM)30.27 "Hg (Oct 7, 4:53 AM)
Low36 °F (Oct 12, 4:53 AM)36% (Oct 8, 3:53 PM)29.60 "Hg (Oct 14, 12:01 PM)
Average55 °F82%29.96 "Hg
* Reported Oct 7 3:53 AM — Oct 22 3:53 AM, Mason, Weather by CustomWeather, © 2014

Note: Actual official high and low records may vary slightly from our data, if they occured in-between our weather recording intervals... More about our weather records

Advertising

Mason weather history for previous 24 hours

 ConditionsComfort  
Time TempWeatherWind HumidityBarometerVisibility
3:53 AM
Oct 22
46 °FOvercast.6 mph77%30.22 "Hg10 mi
2:53 AM47 °FOvercast.8 mph71%30.21 "Hg10 mi
1:53 AM47 °FOvercast.6 mph69%30.21 "Hg10 mi
12:53 AM48 °FOvercast.10 mph66%30.21 "Hg10 mi
11:53 PM
Oct 21
48 °FOvercast.6 mph68%30.20 "Hg10 mi
10:53 PM49 °FOvercast.8 mph74%30.20 "Hg10 mi
9:53 PM50 °FOvercast.8 mph74%30.18 "Hg10 mi
8:53 PM49 °FOvercast.5 mph84%30.16 "Hg10 mi
7:53 PM48 °FMostly cloudy.No wind89%30.14 "Hg10 mi
6:53 PM51 °FLight rain. More clouds than sun.13 mph77%30.14 "Hg10 mi
5:53 PM53 °FMostly cloudy.7 mph66%30.11 "Hg10 mi
4:53 PM54 °FMostly cloudy.7 mph67%30.10 "Hg10 mi
3:53 PM55 °FMostly cloudy.10 mph64%30.08 "Hg10 mi
2:53 PM53 °FMore clouds than sun.8 mph69%30.06 "Hg10 mi
1:53 PM53 °FOvercast.9 mph66%30.06 "Hg10 mi
12:53 PM53 °FMore clouds than sun.13 mph66%30.06 "Hg10 mi
11:53 AM53 °FPartly sunny.10 mph66%30.05 "Hg10 mi
10:53 AM54 °FOvercast.10 mph69%30.04 "Hg10 mi
9:53 AM52 °FOvercast.10 mph75%30.03 "Hg10 mi
8:53 AM50 °FOvercast.9 mph83%30.02 "Hg10 mi
7:53 AM50 °FOvercast.8 mph86%29.99 "Hg10 mi
6:53 AM50 °FOvercast.8 mph89%29.98 "Hg10 mi
5:53 AM49 °FPassing clouds.5 mph93%29.96 "Hg8 mi
4:53 AM49 °FOvercast.5 mph97%29.94 "Hg9 mi
Weather by CustomWeather, © 2014

See weather overviewHow to use our weather pages